Location: Gleizolles
(44.4833°N, 6.7667°E)
Time: 02:15:43
(UTC+00:00)

Cosmos 1174 - Pass Details

Date: 09 April 2020
Orbit: 370 x 1148 km, 66.1° (Epoch: 05 June)

Event Time Altitude Azimuth Distance (km) Brightness Sun altitude
Rises 19:54:40 0° 331° (NNW) 2,662 8.4 -18.0°
Reaches altitude 10° 19:56:42 10° 337° (NNW) 1,870 7.3 -18.3°
Maximum altitude 20:00:49 52° 55° (NE) 827 4.5 -18.9°
Enters shadow 20:02:14 38° 104° (ESE) 1,051 4.7 -19.1°
